| time (UTC) | temp F | wind direction | speed knots | gust knots | rain 1hr in | rain 24hr in | rain mn in | humidity % | barometer mb |
| 20260503040112 | 53 | 178 | 0.0 | 0.9 | 0.00 | 0.00 | 0.00 | 68 | 1020.0 |
| 20260503035049 | 53 | 344 | 0.9 | 0.9 | 0.00 | 0.00 | 0.00 | 68 | 1019.9 |
| 20260503034046 | 53 | 349 | 0.0 | 0.9 | 0.00 | 0.00 | 0.00 | 68 | 1020.0 |
| 20260503033043 | 53 | 340 | 0.9 | 0.9 | 0.00 | 0.00 | 0.00 | 68 | 1020.1 |
| 20260503032139 | 53 | 342 | 0.0 | 1.7 | 0.00 | 0.00 | 0.00 | 67 | 1020.0 |
| 20260503031135 | 54 | 352 | 0.9 | 0.9 | 0.00 | 0.00 | 0.00 | 66 | 1020.1 |
| 20260503030052 | 54 | 353 | 0.9 | 0.9 | 0.00 | 0.00 | 0.00 | 65 | 1020.1 |
| 20260503025049 | 54 | 354 | 0.9 | 1.7 | 0.00 | 0.00 | 0.00 | 64 | 1020.1 |
| 20260503024026 | 54 | 354 | 0.0 | 0.9 | 0.00 | 0.00 | 0.00 | 64 | 1020.2 |
| 20260503023044 | 55 | 343 | 0.9 | 1.7 | 0.00 | 0.00 | 0.00 | 63 | 1020.4 |
| 20260503022041 | 55 | 342 | 0.9 | 1.7 | 0.00 | 0.00 | 0.00 | 63 | 1020.3 |
| 20260503021018 | 55 | 348 | 0.9 | 0.9 | 0.00 | 0.00 | 0.00 | 62 | 1020.4 |
| 20260503020115 | 55 | 356 | 0.9 | 1.7 | 0.00 | 0.00 | 0.00 | 62 | 1020.4 |
| 20260503014150 | 55 | 349 | 0.9 | 1.7 | 0.00 | 0.00 | 0.00 | 61 | 1020.4 |
| 20260503013127 | 56 | 346 | 0.9 | 1.7 | 0.00 | 0.00 | 0.00 | 61 | 1020.4 |
| 20260503012024 | 56 | 354 | 0.9 | 1.7 | 0.00 | 0.00 | 0.00 | 61 | 1020.4 |
| 20260503011022 | 56 | 346 | 0.9 | 1.7 | 0.00 | 0.00 | 0.00 | 61 | 1020.6 |
| 20260503010019 | 56 | 348 | 0.9 | 1.7 | 0.00 | 0.00 | 0.00 | 61 | 1020.6 |
| 20260503005036 | 56 | 350 | 0.0 | 1.7 | 0.00 | 0.00 | 0.00 | 60 | 1020.8 |
| 20260503004034 | 56 | 353 | 0.0 | 0.9 | 0.00 | 0.00 | 0.00 | 60 | 1021.0 |
| 20260503003211 | 56 | 344 | 0.9 | 1.7 | 0.00 | 0.00 | 0.00 | 60 | 1021.0 |
| 20260503002049 | 56 | 358 | 0.9 | 1.7 | 0.00 | 0.00 | 0.00 | 60 | 1021.0 |
| 20260503001207 | 56 | 349 | 0.9 | 1.7 | 0.00 | 0.00 | 0.00 | 59 | 1021.1 |
| 20260503000103 | 57 | 336 | 0.9 | 1.7 | 0.00 | 0.00 | 0.00 | 60 | 1021.2 |
| 20260502235140 | 57 | 343 | 0.9 | 1.7 | 0.00 | 0.00 | 0.00 | 59 | 1021.2 |
| 20260502234017 | 57 | 344 | 0.9 | 1.7 | 0.00 | 0.00 | 0.00 | 59 | 1021.3 |
| 20260502233054 | 56 | 345 | 0.9 | 1.7 | 0.00 | 0.00 | 0.00 | 60 | 1021.4 |
| 20260502232153 | 56 | 355 | 0.0 | 0.9 | 0.00 | 0.00 | 0.00 | 61 | 1021.5 |
| 20260502231029 | 57 | 351 | 0.9 | 1.7 | 0.00 | 0.00 | 0.00 | 60 | 1021.5 |
| 20260502230027 | 57 | 356 | 0.9 | 1.7 | 0.00 | 0.00 | 0.00 | 60 | 1021.6 |
| 20260502225044 | 57 | 6 | 0.0 | 0.9 | 0.00 | 0.00 | 0.00 | 59 | 1021.7 |
| 20260502224020 | 58 | 6 | 0.0 | 0.9 | 0.00 | 0.00 | 0.00 | 59 | 1021.6 |
| 20260502223018 | 58 | 351 | 0.9 | 1.7 | 0.00 | 0.00 | 0.00 | 59 | 1021.5 |
| 20260502222037 | 58 | 350 | 0.9 | 1.7 | 0.00 | 0.00 | 0.00 | 59 | 1021.5 |
| 20260502221133 | 58 | 341 | 0.9 | 1.7 | 0.00 | 0.00 | 0.00 | 59 | 1021.5 |
| 20260502220053 | 59 | 350 | 0.0 | 0.9 | 0.00 | 0.00 | 0.00 | 58 | 1021.5 |
| 20260502215050 | 59 | 352 | 0.9 | 0.9 | 0.00 | 0.00 | 0.00 | 57 | 1021.5 |
| 20260502214107 | 59 | 356 | 0.9 | 1.7 | 0.00 | 0.00 | 0.00 | 56 | 1021.7 |
| 20260502213024 | 59 | 341 | 0.9 | 1.7 | 0.00 | 0.00 | 0.00 | 56 | 1021.7 |
| 20260502212038 | 59 | 343 | 0.9 | 0.9 | 0.00 | 0.00 | 0.00 | 57 | 1021.7 |
| 20260502211035 | 59 | 358 | 0.0 | 0.9 | 0.00 | 0.00 | 0.00 | 57 | 1021.7 |
| 20260502210033 | 59 | 354 | 0.0 | 0.9 | 0.00 | 0.00 | 0.00 | 55 | 1021.9 |
| 20260502205050 | 59 | 0.0 | 0.0 | 0.00 | 0.00 | 0.00 | 55 | 1021.7 | |
| 20260502204047 | 62 | 97 | 0.9 | 6.1 | 0.00 | 0.00 | 0.00 | 52 | 1021.7 |
| 20260502203024 | 62 | 354 | 0.0 | 1.7 | 0.00 | 0.00 | 0.00 | 50 | 1021.7 |
| 20260502202041 | 62 | 345 | 0.0 | 0.9 | 0.00 | 0.00 | 0.00 | 49 | 1021.7 |
| 20260502201139 | 61 | 336 | 0.9 | 1.7 | 0.00 | 0.00 | 0.00 | 51 | 1021.8 |
| 20260502200116 | 61 | 350 | 0.9 | 0.9 | 0.00 | 0.00 | 0.00 | 52 | 1021.8 |
| 20260502195113 | 61 | 0.0 | 0.0 | 0.00 | 0.00 | 0.00 | 51 | 1021.8 | |
| 20260502194111 | 62 | 0.0 | 0.0 | 0.00 | 0.00 | 0.00 | 50 | 1021.7 | |
| 20260502193207 | 63 | 0.0 | 0.0 | 0.00 | 0.00 | 0.00 | 49 | 1021.6 | |
| 20260502192104 | 63 | 0.0 | 0.0 | 0.00 | 0.00 | 0.00 | 47 | 1021.5 | |
| 20260502191021 | 64 | 0.0 | 0.0 | 0.00 | 0.00 | 0.00 | 45 | 1021.5 | |
| 20260502190159 | 65 | 0.0 | 0.0 | 0.00 | 0.00 | 0.00 | 43 | 1021.4 | |
| 20260502185035 | 66 | 0.0 | 0.0 | 0.00 | 0.00 | 0.00 | 43 | 1021.4 | |
| 20260502184212 | 67 | 0.0 | 0.0 | 0.00 | 0.00 | 0.00 | 41 | 1021.2 | |
| 20260502182025 | 70 | 0.0 | 0.0 | 0.00 | 0.00 | 0.00 | 36 | 1021.1 | |
| 20260502181018 | 71 | 0.0 | 0.0 | 0.00 | 0.00 | 0.00 | 33 | 1021.2 | |
| 20260502164213 | 77 | 236 | 1.7 | 5.2 | 0.00 | 0.00 | 0.00 | 28 | 1021.5 |
| 20260502163050 | 76 | 170 | 0.9 | 3.5 | 0.00 | 0.00 | 0.00 | 28 | 1021.4 |
| 20260502162027 | 76 | 311 | 0.9 | 2.6 | 0.00 | 0.00 | 0.00 | 28 | 1021.5 |
| 20260502161024 | 77 | 303 | 0.9 | 3.5 | 0.00 | 0.00 | 0.00 | 27 | 1021.6 |
| 20260502160142 | 77 | 246 | 1.7 | 3.5 | 0.00 | 0.00 | 0.00 | 28 | 1021.7 |
| 20260502152151 | 79 | 263 | 1.7 | 6.1 | 0.00 | 0.00 | 0.00 | 27 | 1022.1 |
| 20260502151028 | 77 | 267 | 0.9 | 3.5 | 0.00 | 0.00 | 0.00 | 28 | 1022.3 |
| 20260502123024 | 75 | 251 | 1.7 | 5.2 | 0.00 | 0.00 | 0.00 | 30 | 1024.3 |
| 20260502122143 | 76 | 288 | 1.7 | 6.1 | 0.00 | 0.00 | 0.00 | 29 | 1024.5 |
| 20260502121059 | 75 | 193 | 1.7 | 5.2 | 0.00 | 0.00 | 0.00 | 29 | 1024.6 |
| 20260502115032 | 74 | 251 | 2.6 | 8.7 | 0.00 | 0.00 | 0.00 | 30 | 1024.9 |
| 20260502114029 | 76 | 231 | 0.9 | 5.2 | 0.00 | 0.00 | 0.00 | 30 | 1025.0 |
| 20260502113208 | 74 | 202 | 0.9 | 2.6 | 0.00 | 0.00 | 0.00 | 31 | 1025.1 |
| 20260502112044 | 74 | 264 | 2.6 | 7.0 | 0.00 | 0.00 | 0.00 | 30 | 1025.4 |
| 20260502111021 | 74 | 211 | 0.9 | 6.1 | 0.00 | 0.00 | 0.00 | 31 | 1025.6 |
| 20260502110019 | 73 | 223 | 1.7 | 6.1 | 0.00 | 0.00 | 0.00 | 32 | 1025.7 |
| 20260502105056 | 74 | 230 | 3.5 | 7.8 | 0.00 | 0.00 | 0.00 | 32 | 1026.0 |
| 20260502104214 | 74 | 193 | 0.9 | 5.2 | 0.00 | 0.00 | 0.00 | 33 | 1026.2 |
| 20260502103031 | 74 | 209 | 0.9 | 3.5 | 0.00 | 0.00 | 0.00 | 33 | 1026.3 |
| 20260502102127 | 74 | 155 | 0.9 | 1.7 | 0.00 | 0.00 | 0.00 | 33 | 1026.3 |
| 20260502101044 | 71 | 285 | 1.7 | 5.2 | 0.00 | 0.00 | 0.00 | 35 | 1026.5 |
| 20260502091048 | 69 | 275 | 0.9 | 3.5 | 0.00 | 0.00 | 0.00 | 39 | 1026.7 |
| 20260502071016 | 62 | 312 | 0.9 | 2.6 | 0.00 | 0.00 | 0.00 | 52 | 1027.6 |
| 20260502070113 | 61 | 340 | 1.7 | 2.6 | 0.00 | 0.00 | 0.00 | 55 | 1027.7 |
| 20260502065131 | 60 | 291 | 0.9 | 1.7 | 0.00 | 0.00 | 0.00 | 56 | 1027.6 |
| 20260502064028 | 59 | 304 | 0.9 | 1.7 | 0.00 | 0.00 | 0.00 | 58 | 1027.6 |
| 20260502063025 | 58 | 304 | 0.0 | 0.9 | 0.00 | 0.00 | 0.00 | 58 | 1027.6 |
| 20260502062022 | 56 | 18 | 0.0 | 0.9 | 0.00 | 0.00 | 0.00 | 59 | 1027.7 |
| 20260502061020 | 55 | 10 | 0.0 | 0.9 | 0.00 | 0.00 | 0.00 | 61 | 1027.5 |
| 20260502060018 | 55 | 0.0 | 0.0 | 0.00 | 0.00 | 0.00 | 65 | 1027.6 | |
| 20260502055054 | 54 | 0.0 | 0.0 | 0.00 | 0.00 | 0.00 | 68 | 1027.7 | |
| 20260502054031 | 52 | 0.0 | 0.0 | 0.00 | 0.00 | 0.00 | 70 | 1027.6 | |
| 20260502053129 | 51 | 0.0 | 0.0 | 0.00 | 0.00 | 0.00 | 74 | 1027.6 | |
| 20260502052027 | 49 | 0.0 | 0.0 | 0.00 | 0.00 | 0.00 | 77 | 1027.4 | |
| 20260502051124 | 49 | 0.0 | 0.0 | 0.00 | 0.00 | 0.00 | 77 | 1027.6 | |
| 20260502050121 | 48 | 0.0 | 0.0 | 0.00 | 0.00 | 0.00 | 76 | 1027.5 | |
| 20260502045019 | 48 | 0.0 | 0.0 | 0.00 | 0.00 | 0.00 | 76 | 1027.4 | |
| 20260502044035 | 47 | 0.0 | 0.0 | 0.00 | 0.00 | 0.00 | 76 | 1027.4 | |
| 20260502043112 | 47 | 0.0 | 0.0 | 0.00 | 0.00 | 0.00 | 76 | 1027.5 | |
| 20260502042029 | 47 | 102 | 0.0 | 0.9 | 0.00 | 0.00 | 0.00 | 76 | 1027.6 |
| 20260502041147 | 47 | 96 | 0.0 | 1.7 | 0.00 | 0.00 | 0.00 | 74 | 1027.4 |